Regional Weather Roundup
Issued by NWS

Home | Current Version | Previous Version | Graphics & Text | Print | Product List | Glossary On
Versions: 1 2 3 4 5 6 7 8 9 10 11 12 13 14 15 16 17 18 19 20 21 22 23 24 25 26 27 28 29 30 31 32 33 34 35 36 37 38 39 40 41 42 43 44 45 46 47 48 49 50
000
ASUS43 KIND 191209
RWRIN

WEATHER ROUNDUP FOR INDIANA
NATIONAL WEATHER SERVICE INDIANAPOLIS IN
700 AM EST SUN NOV 19 2017

NOTE: "FAIR" INDICATES FEW OR NO CLOUDS BELOW 12,000 FEET WITH NO
SIGNIFICANT WEATHER AND/OR OBSTRUCTIONS TO VISIBILITY.

* - STATION DOES NOT REPORT WEATHER SUCH AS PRECIPITATION OR FOG.

+ - STATION NOT QUALITY CONTROLLED BY THE NATIONAL WEATHER SERVICE.
    USE DATA WITH CAUTION...ESPECIALLY DEWPOINT AND RELATIVE
    HUMIDITY OBSERVATIONS.

INZ001>003-010>013-019-020-191300-
NORTHWEST INDIANA

CITY           SKY/WX    TMP DP  RH WIND       PRES   REMARKS
GARY /AIRPORT/ CLOUDY    34  23  64 NW8       29.94S WCI  27
KNOX *+        CLOUDY    34  27  75 NW13G18   29.93R WCI  25
LA PORTE +     CLOUDY    33  25  71 W10G18    29.92R WCI  25
6HR MIN TEMP:  33; 6HR MAX TEMP:  38;

MICHIGAN CITY+ CLOUDY    34  27  75 W12G18    29.92S WCI  25
MONTICELLO +   CLOUDY    34  26  72 NW15      29.94S WCI  24
6HR MIN TEMP:  34; 6HR MAX TEMP:  37;

RENSSELAER +   CLOUDY    32  27  80 W14G22    29.96R WCI  22
VALPARAISO     CLOUDY    35  23  61 NW6G17    29.93S WCI  30
6HR MIN TEMP:  35; 6HR MAX TEMP:  40;


$$

LMZ046-743>745-191300-
SOUTHERN LAKE MICHIGAN

STATION/POSITION TIME  TEMP    WIND        PRES    WAVE
                       AIR SEA DIR/SP/G            HT
                 (UTC) (F)     (DEG/KT/KT) (MB)    (FT)
BURNS HARBOR     1140   35     310/ 19/ 23 1013.9R
MICHIGAN CITY    1140   34     270/ 25/ 28   N/A

$$

INZ004-005-014>016-021>024-191300-
NORTH CENTRAL INDIANA

CITY           SKY/WX    TMP DP  RH WIND       PRES   REMARKS
GOSHEN         CLOUDY    36  27  69 NW14      29.87R WCI  27
6HR MIN TEMP:  36; 6HR MAX TEMP:  39;

LOGANSPORT +   CLOUDY    34  30  86 W13G21    29.94R WCI  25
PERU/GRISSOM   CLOUDY    35  31  84 W14       29.91R WCI  26
6HR MIN TEMP:  35; 6HR MAX TEMP:  38;

ROCHESTER +    CLOUDY    37  30  75 NW16      29.91R WCI  28
SOUTH BEND     CLOUDY    35  27  72 NW20      29.90R WCI  24
6HR MIN TEMP:  35; 6HR MAX TEMP:  38; 6HR PCP: TRACE;

WARSAW +       CLOUDY    36  28  75 NW16G24   29.89R WCI  26

$$

INZ006>009-017-018-025>027-191300-
NORTHEAST INDIANA

CITY           SKY/WX    TMP DP  RH WIND       PRES   REMARKS
AUBURN +       CLOUDY    36  32  87 W14       29.85R WCI  27
FORT WAYNE     CLOUDY    38  31  76 W14       29.87R WCI  30
6HR MIN TEMP:  38; 6HR MAX TEMP:  41; 6HR PCP: TRACE;

HUNTINGTON +   CLOUDY    36  31  82 W9G20     29.89R WCI  29
6HR MIN TEMP:  36; 6HR MAX TEMP:  39;

KENDALLVILLE + CLOUDY    36  31  82 W7        29.85R WCI  31

$$

INZ028-029-035-036-043>045-051>053-191300-
WEST CENTRAL INDIANA

CITY           SKY/WX    TMP DP  RH WIND       PRES   REMARKS
CRAWFORDSVL +  CLOUDY    30  28  93 W15       29.97R WCI  19
6HR MIN TEMP:  31; 6HR MAX TEMP:  36;

GREENCASTLE +  CLOUDY    32  28  86 W7        30.00R WCI  26
LAFAYETTE      CLOUDY    33  28  81 W15G25    29.97R WCI  23
6HR MIN TEMP:  33; 6HR MAX TEMP:  38;

TERRE HAUTE    CLOUDY    33  26  75 NW14      30.03R WCI  23
6HR MIN TEMP:  33; 6HR MAX TEMP:  39;


$$

INZ030>032-037>040-046>048-054>057-064-065-191300-
CENTRAL INDIANA

CITY           SKY/WX    TMP DP  RH WIND       PRES   REMARKS
CP ATTERBURY + CLOUDY    36  32  87 W10       29.98R WCI  28
COLUMBUS       CLOUDY    36  30  80 W13G18    29.98  WCI  27
FISHERS *+     CLOUDY    34  32  93 W15       29.96R WCI  24
FRANKFORT +    CLOUDY    36  32  85 NW13      29.97R WCI  27
6HR MIN TEMP:  36; 6HR MAX TEMP:  40;

GREENWOOD *+   CLOUDY    38  32  79 W12G17    29.97R WCI  30
INDIANAPOLIS   CLOUDY    34  29  82 W16       29.97R WCI  24
6HR MIN TEMP:  34; 6HR MAX TEMP:  39;

-EAGLE CREEK   CLOUDY    35  29  78 W12       29.96R WCI  27
6HR MIN TEMP:  35; 6HR MAX TEMP:  39;

KOKOMO +       CLOUDY    35  30  82 W18       29.93R WCI  24
6HR MIN TEMP:  35; 6HR MAX TEMP:  38;

MARION +       CLOUDY    36  32  87 W17       29.92R WCI  25
MT COMFORT *+  CLOUDY    34  32  93 W18       29.95R WCI  23
SHELBYVILLE    CLOUDY    37  30  75 W16G22    29.95R WCI  28
6HR MIN TEMP:  37; 6HR MAX TEMP:  40;

ZIONSVILLE +   CLOUDY    33  30  90 W13G20    29.96R WCI  24
6HR MIN TEMP:  33; 6HR MAX TEMP:  37;


$$

INZ033-034-041-042-049-050-058-059-191300-
EAST CENTRAL INDIANA

CITY           SKY/WX    TMP DP  RH WIND       PRES   REMARKS
MUNCIE         CLOUDY    38  29  70 W10       29.91R WCI  31
6HR MIN TEMP:  38; 6HR MAX TEMP:  40;

RICHMOND +     CLOUDY    34  32  93 W10       29.91R WCI  26

$$

INZ060-061-067>069-081>083-085>088-191300-
SOUTHWEST INDIANA

CITY           SKY/WX    TMP DP  RH WIND       PRES   REMARKS
EVANSVILLE     CLOUDY    35  28  75 W9        30.08R WCI  28
6HR MIN TEMP:  35; 6HR MAX TEMP:  42;

HUNTINGBURG +  CLOUDY    35  29  78 NW15G23   30.05R WCI  25
6HR MIN TEMP:  35; 6HR MAX TEMP:  41;

WASHINGTON +   CLOUDY    35  27  74 NW12      30.05R WCI  27
6HR MIN TEMP:  35; 6HR MAX TEMP:  40;


$$

INZ062-063-066-070>080-084-089>092-191300-
SOUTH CENTRAL AND SOUTHEAST INDIANA

CITY           SKY/WX    TMP DP  RH WIND       PRES   REMARKS
BEDFORD +      CLOUDY    36  28  75 NW8       30.00R WCI  29
BLOOMINGTON    CLOUDY    34  27  75 NW10G20   30.00R WCI  26
6HR MIN TEMP:  34; 6HR MAX TEMP:  39;

MADISON *+     CLOUDY    37  32  81 W5        29.98R WCI  34
NORTH VERNON + CLOUDY    36  30  80 W5        29.97R WCI  32
SEYMOUR +      CLOUDY    39  30  70 W13G21    29.99R WCI  32

$$





USA.gov is the U.S. government's official web portal to all federal, state and local government web resources and services.